[[{"header":{"parameterUnit":"m.s-1","parameterCategory":1,"la1":30.2991,"la2":30.254,"lo1":-89.0895,"lo2":-89.0444,"dy":0.0017,"dx":0.0017,"nx":28,"ny":28,"refTime":"2023-11-09T03:00:00:Z","depth":0,"parameterNumber":2,"parameterNumberName":"U-component_of_WINDS"},"data":[0,0,0,0,0,0,0,0,0,0,0,0,0,0,0,0,0,0,0,0,0,0,0,0,0,0,0,0,0,0,0,0,0,0,0,0,0,0,0,0,0,0,0,0,0,0,0,0,0,0,0,0,0,0,0,0,0,0,-2.3397,-2.3397,0,-2.3368,-2.3367,-2.3367,-2.3293,-2.3291,-2.329,-2.3288,-2.3259,-2.326,-2.3261,0,0,0,0,0,0,0,0,0,0,0,0,0,-2.3391,-2.3392,-2.3397,-2.3397,-2.3396,-2.3368,-2.3367,-2.3367,-2.3293,-2.3291,-2.3289,-2.3288,-2.3259,-2.326,-2.3261,0,0,0,0,0,0,0,0,0,0,0,0,0,-2.3381,-2.3392,-2.3397,-2.3356,-2.3352,-2.3368,-2.3367,-2.3367,-2.3294,-2.3291,-2.3289,-2.3287,-2.3259,-2.326,-2.3261,-2.3314,0,0,-2.3264,-2.3264,0,0,0,0,0,0,0,0,-2.3382,-2.3381,-2.3362,-2.3359,-2.3355,-2.3332,-2.3354,-2.3349,-2.3294,-2.3316,-2.3288,-2.3286,-2.3285,-2.3284,-2.3284,-2.3313,-2.3311,-2.3264,-2.3265,-2.3265,-2.3265,0,0,0,0,0,0,0,-2.3382,-2.3382,-2.3385,-2.3362,-2.3357,-2.334,-2.3336,-2.3353,-2.3314,-2.3314,-2.3308,-2.3306,-2.3283,-2.3283,-2.3282,-2.3311,-2.3264,-2.3265,-2.3265,-2.3266,-2.3384,-2.3386,0,0,0,0,0,0,-2.3389,-2.3383,-2.3386,-2.3385,-2.3363,-2.3342,-2.3337,-2.3341,-2.3314,-2.3307,-2.3308,-2.3303,-2.3282,-2.3281,-2.3281,-2.3342,-2.3265,-2.3266,-2.3267,-2.3381,-2.3384,-2.3387,0,0,0,0,0,0,-2.3389,-2.339,-2.3387,-2.3382,-2.3381,-2.3344,-2.335,-2.3342,-2.3342,-2.3309,-2.3302,-2.3315,-2.328,-2.328,-2.3307,-2.334,-2.3266,-2.3267,-2.3378,-2.3382,-2.3386,-2.3464,0,0,0,0,0,0,-2.3389,-2.339,-2.341,-2.3383,-2.3381,-2.3413,-2.3352,-2.3343,-2.3344,-2.3337,-2.3314,-2.3308,-2.3278,-2.3306,-2.3308,-2.334,-2.3268,-2.3375,-2.338,-2.3384,-2.3458,-2.347,-2.348,0,0,0,0,0,-2.3389,-2.3433,-2.3411,-2.3412,-2.3405,-2.3415,-2.3414,-2.3379,-2.3347,-2.3366,-2.3346,-2.3309,-2.3336,-2.3309,-2.3311,-2.3344,-2.3373,-2.3379,-2.3384,-2.3453,-2.3468,-2.348,0,0,0,0,0,0,-2.3463,-2.3428,-2.3404,-2.344,-2.3431,-2.3403,-2.3426,-2.3395,-2.3395,-2.3388,-2.3345,-2.334,-2.3373,-2.3361,-2.3331,-2.3395,-2.3349,-2.3355,-2.3401,-2.3414,-2.3425,-2.3426,-2.3269,0,0,0,0,0,-2.3484,-2.3495,-2.3464,-2.3499,-2.3496,-2.3462,-2.3465,-2.3439,-2.3428,-2.3424,-2.3405,-2.3396,-2.3403,-2.3408,-2.3412,-2.3457,-2.3451,-2.3481,-2.3492,-2.3501,-2.3506,-2.353,-2.3543,-2.3406,-2.3406,-2.3405,0,0,-2.3527,-2.3509,-2.3518,-2.3514,-2.3504,-2.3517,-2.3459,-2.3475,-2.3485,-2.3426,-2.345,-2.3437,-2.3424,-2.3461,-2.3476,-2.3452,-2.3543,-2.3508,-2.3516,-2.3516,-2.3537,-2.355,-2.3562,-2.3409,-2.3409,-2.3408,0,0,-2.361,-2.3598,-2.3626,-2.3618,-2.3604,-2.3581,-2.3588,-2.3565,-2.3554,-2.3577,-2.3534,-2.3546,-2.3558,-2.3551,-2.3549,-2.3633,-2.3599,-2.3636,-2.3692,-2.3715,-2.3726,-2.3736,-2.3765,-2.3777,-2.3642,-2.3642,-2.3642,0,-2.3665,-2.3682,-2.3645,-2.3664,-2.3663,-2.3612,-2.3641,-2.3635,-2.3623,-2.3624,-2.3598,-2.3613,-2.3601,-2.3635,-2.3656,-2.3656,-2.3663,-2.3637,-2.3728,-2.3737,-2.3745,-2.3773,-2.3784,-2.3646,-2.3646,-2.3645,-2.3645,0,-2.375,-2.3763,-2.3788,-2.3778,-2.378,-2.3804,-2.3771,-2.3778,-2.3753,-2.3734,-2.3759,-2.3744,-2.3744,-2.3751,-2.3726,-2.3782,-2.3767,-2.3735,-2.3688,-2.3763,-2.3789,-2.3799,-2.3653,-2.3651,-2.365,-2.3649,0,0,-2.3877,-2.3848,-2.3857,-2.3853,-2.3835,-2.3844,-2.3867,-2.3867,-2.3875,-2.3869,-2.3887,-2.39,-2.387,-2.3868,-2.3843,-2.3863,-2.3931,-2.3828,-2.3827,-2.3848,-2.3992,-2.4016,-2.4029,-2.391,-2.3912,-2.3913,-2.3993,0,-2.3956,-2.3991,-2.3959,-2.4001,-2.4013,-2.3966,-2.3986,-2.3978,-2.3961,-2.3969,-2.3951,-2.396,-2.3921,-2.3919,-2.3938,-2.3919,-2.396,-2.3913,-2.3926,-2.3927,-2.3929,-2.4042,-2.4067,-2.4143,-2.4003,-2.4005,-2.4006,0,-2.4051,-2.405,-2.4094,-2.4074,-2.4078,-2.4096,-2.4095,-2.4103,-2.4094,-2.408,-2.4079,-2.4048,-2.407,-2.4025,-2.4054,-2.4023,-2.4027,-2.4019,-2.4021,-2.402,-2.397,-2.4043,-2.4167,-2.4178,-2.4021,-2.402,-2.4019,0,-2.4139,-2.4149,-2.4176,-2.4174,-2.4152,-2.4166,-2.4158,-2.4145,-2.4148,-2.4148,-2.415,-2.4152,-2.4153,-2.4156,-2.4127,-2.4097,-2.416,-2.4113,-2.4149,-2.415,-2.4163,-2.4162,-2.4288,-2.4168,-2.4168,-2.4168,-2.4167,0,-2.4229,-2.4257,-2.4216,-2.4232,-2.4263,-2.4227,-2.4259,-2.4246,-2.4236,-2.425,-2.421,-2.4224,-2.4185,-2.4196,-2.4174,-2.4201,-2.4202,-2.4192,-2.4186,-2.4195,-2.4196,-2.4196,-2.4189,-2.4171,-2.417,-2.4169,-2.4169,0,-2.4331,-2.4305,-2.4331,-2.4309,-2.4304,-2.4328,-2.4309,-2.4324,-2.4306,-2.4324,-2.4326,-2.4298,-2.4308,-2.428,-2.4286,-2.4271,-2.4311,-2.4296,-2.4314,-2.4309,-2.4347,-2.4344,-2.4476,-2.4491,-2.4363,-2.4364,-2.4365,0,-2.439,-2.441,-2.4391,-2.4398,-2.4391,-2.4402,-2.4406,-2.4372,-2.4377,-2.4369,-2.4385,-2.4392,-2.4396,-2.4415,-2.4395,-2.4399,-2.4384,-2.443,-2.4384,-2.4394,-2.4384,-2.4383,-2.4385,-2.4439,-2.4441,-2.4442,-2.4443,0,-2.4496,-2.4483,-2.4489,-2.4491,-2.4496,-2.4496,-2.4493,-2.4501,-2.4465,-2.4473,-2.4483,-2.4486,-2.4493,-2.4501,-2.4502,-2.4493,-2.4463,-2.4458,-2.4467,-2.4476,-2.4485,-2.448,-2.4339,-2.4455,-2.4453,-2.4453,-2.4452,-2.4451,-2.4578,-2.4595,-2.4584,-2.4592,-2.4587,-2.4586,-2.4599,-2.4583,-2.4591,-2.4593,-2.4574,-2.4589,-2.458,-2.4578,-2.4573,-2.4585,-2.4563,-2.4576,-2.4579,-2.4582,-2.4589,-2.4484,-2.4585,-2.4584,-2.4584,-2.4584,-2.4583,0,-2.4682,-2.4673,-2.4682,-2.4679,-2.4687,-2.4658,-2.4654,-2.4662,-2.4675,-2.467,-2.4675,-2.4687,-2.4695,-2.4677,-2.4682,-2.4695,-2.4681,-2.4697,-2.4695,-2.4694,-2.4607,-2.4599,-2.4708,-2.4708,-2.4708,-2.4708,-2.4708,-2.4708,-2.4737,-2.4763,-2.4749,-2.4773,-2.4764,-2.4778,-2.4779,-2.4778,-2.4773,-2.4789,-2.4796,-2.4784,-2.4774,-2.4778,-2.4784,-2.4779,-2.4782,-2.4804,-2.4793,-2.4712,-2.47,-2.4688,-2.468,-2.4805,-2.4805,-2.4879,-2.4879,-2.488]},{"header":{"parameterUnit":"m.s-1","parameterCategory":1,"la1":30.2991,"la2":30.254,"lo1":-89.0895,"lo2":-89.0444,"dy":0.0017,"dx":0.0017,"nx":28,"ny":28,"refTime":"2023-11-09T03:00:00:Z","depth":0,"parameterNumber":3,"parameterNumberName":"V-component_of_WINDS"},"data":[0,0,0,0,0,0,0,0,0,0,0,0,0,0,0,0,0,0,0,0,0,0,0,0,0,0,0,0,0,0,0,0,0,0,0,0,0,0,0,0,0,0,0,0,0,0,0,0,0,0,0,0,0,0,0,0,0,0,0.519,0.519,0,0.5178,0.5178,0.5178,0.518,0.5181,0.5181,0.5181,0.5167,0.5166,0.5166,0,0,0,0,0,0,0,0,0,0,0,0,0,0.5214,0.5214,0.519,0.519,0.519,0.5178,0.5178,0.5178,0.518,0.5181,0.5181,0.5181,0.5167,0.5167,0.5166,0,0,0,0,0,0,0,0,0,0,0,0,0,0.5203,0.5214,0.519,0.519,0.519,0.5178,0.5178,0.5178,0.518,0.5181,0.5181,0.5181,0.5167,0.5167,0.5166,0.5153,0,0,0.5163,0.5163,0,0,0,0,0,0,0,0,0.5204,0.5202,0.519,0.519,0.5189,0.5181,0.5181,0.517,0.518,0.5184,0.5181,0.5182,0.5171,0.517,0.5167,0.5153,0.5152,0.5163,0.5162,0.5162,0.5162,0,0,0,0,0,0,0,0.5205,0.5203,0.5185,0.519,0.5189,0.519,0.5189,0.5179,0.5176,0.5183,0.5184,0.5182,0.5171,0.5168,0.5167,0.5152,0.5163,0.5162,0.5162,0.5161,0.5129,0.5129,0,0,0,0,0,0,0.5206,0.5204,0.5186,0.5185,0.5198,0.5189,0.5188,0.5183,0.5176,0.5175,0.5182,0.5183,0.5169,0.5168,0.5166,0.5152,0.5162,0.5161,0.5161,0.5129,0.5129,0.5129,0,0,0,0,0,0,0.5206,0.5204,0.5186,0.5194,0.5192,0.5189,0.5183,0.5183,0.518,0.5175,0.5174,0.5179,0.517,0.5168,0.5157,0.5152,0.5161,0.516,0.513,0.5129,0.5129,0.5124,0,0,0,0,0,0,0.5207,0.5204,0.5199,0.5194,0.5192,0.5177,0.5183,0.5183,0.5178,0.5179,0.5172,0.5171,0.517,0.5159,0.5156,0.5151,0.5159,0.513,0.513,0.5129,0.5125,0.5123,0.5122,0,0,0,0,0,0.5208,0.5198,0.5199,0.5197,0.5185,0.5177,0.5175,0.5174,0.5178,0.5173,0.5171,0.5171,0.5153,0.5157,0.5155,0.5149,0.5131,0.513,0.5129,0.5125,0.5124,0.5122,0,0,0,0,0,0,0.5201,0.5197,0.5198,0.5186,0.5182,0.5177,0.5171,0.5172,0.5166,0.5167,0.5166,0.5164,0.5154,0.5151,0.5155,0.5138,0.5142,0.5141,0.514,0.5139,0.5138,0.5138,0.5159,0,0,0,0,0,0.5198,0.5192,0.5188,0.5178,0.5176,0.5174,0.517,0.517,0.5165,0.5163,0.5159,0.5154,0.5148,0.5143,0.5137,0.5125,0.5124,0.512,0.5119,0.5118,0.5116,0.5112,0.511,0.5126,0.5126,0.5126,0,0,0.5191,0.5189,0.5184,0.5177,0.5173,0.5167,0.5172,0.5164,0.516,0.5162,0.5152,0.515,0.5144,0.5133,0.5128,0.513,0.5112,0.5117,0.5116,0.5115,0.5111,0.5109,0.5108,0.5126,0.5126,0.5126,0,0,0.5177,0.5174,0.5165,0.5163,0.5159,0.5158,0.5156,0.5152,0.515,0.5141,0.5143,0.5138,0.5126,0.5122,0.5119,0.5106,0.5107,0.5104,0.5098,0.5093,0.5092,0.5091,0.5087,0.5085,0.5103,0.5103,0.5103,0,0.5169,0.5159,0.5161,0.5154,0.5151,0.5154,0.5146,0.5143,0.5136,0.5134,0.5137,0.5124,0.512,0.511,0.5107,0.5104,0.5102,0.5104,0.5092,0.5091,0.509,0.5086,0.5085,0.5103,0.5103,0.5103,0.5103,0,0.5151,0.5145,0.5138,0.5134,0.513,0.5122,0.5123,0.5119,0.512,0.5119,0.5111,0.5107,0.5101,0.5099,0.5099,0.5088,0.509,0.5093,0.5097,0.5088,0.5085,0.5083,0.5102,0.5102,0.5103,0.5103,0,0,0.5128,0.5127,0.5124,0.5123,0.512,0.5115,0.5109,0.5104,0.5101,0.5097,0.5092,0.5083,0.5086,0.5083,0.5083,0.5079,0.5071,0.5082,0.5082,0.508,0.506,0.5058,0.5056,0.5072,0.5072,0.5071,0.5061,0,0.5113,0.5102,0.5104,0.5093,0.5088,0.5093,0.5088,0.5085,0.5085,0.5081,0.508,0.5075,0.5079,0.5077,0.5073,0.5072,0.5066,0.5073,0.5067,0.5067,0.5068,0.5054,0.5051,0.5041,0.5059,0.5059,0.5059,0,0.5093,0.5091,0.508,0.508,0.5078,0.5073,0.507,0.5065,0.5064,0.5064,0.5062,0.5063,0.5058,0.5063,0.5055,0.506,0.5058,0.5058,0.5057,0.5056,0.5062,0.5053,0.5038,0.5037,0.5057,0.5057,0.5057,0,0.5079,0.5072,0.5065,0.5064,0.5064,0.5061,0.506,0.5059,0.5057,0.5054,0.5053,0.5049,0.5047,0.5044,0.5046,0.505,0.5038,0.5044,0.5039,0.5039,0.5035,0.5035,0.502,0.5034,0.5034,0.5034,0.5034,0,0.5061,0.5054,0.5059,0.5055,0.5048,0.5051,0.5044,0.5044,0.5044,0.504,0.5044,0.504,0.5042,0.5039,0.504,0.5034,0.5033,0.5033,0.5034,0.5033,0.5033,0.5031,0.5031,0.5034,0.5034,0.5034,0.5034,0,0.5042,0.5045,0.5038,0.504,0.504,0.5035,0.5036,0.5033,0.5034,0.5029,0.5028,0.503,0.5027,0.5028,0.5024,0.5025,0.5018,0.5019,0.5019,0.5019,0.5014,0.5014,0.4996,0.4994,0.501,0.501,0.501,0,0.5031,0.5026,0.5028,0.5026,0.5026,0.5023,0.5021,0.5025,0.5023,0.5023,0.5019,0.5017,0.5015,0.5009,0.501,0.5008,0.5009,0.5003,0.5008,0.5008,0.5009,0.5009,0.5009,0.5001,0.5001,0.5001,0.5001,0,0.501,0.5012,0.501,0.5009,0.5008,0.5007,0.5006,0.5005,0.5009,0.5007,0.5004,0.5003,0.5,0.4998,0.4996,0.4996,0.4999,0.5,0.4998,0.4997,0.4997,0.4997,0.5015,0.4999,0.4999,0.5,0.5,0.5,0.4994,0.4991,0.4992,0.499,0.4991,0.4991,0.4989,0.4991,0.4989,0.4988,0.499,0.4987,0.4988,0.4987,0.4987,0.4984,0.4987,0.4985,0.4984,0.4984,0.4983,0.4998,0.4984,0.4984,0.4984,0.4984,0.4984,0,0.4973,0.4975,0.4974,0.4974,0.4973,0.4978,0.4979,0.4977,0.4975,0.4976,0.4975,0.4973,0.4971,0.4973,0.4972,0.497,0.4972,0.497,0.497,0.497,0.4981,0.4982,0.4969,0.4969,0.4969,0.4969,0.4969,0.4969,0.4962,0.4958,0.4961,0.4957,0.4959,0.4957,0.4957,0.4958,0.4959,0.4957,0.4956,0.4958,0.496,0.4959,0.4958,0.4959,0.4959,0.4956,0.4957,0.4967,0.4969,0.497,0.4971,0.4956,0.4956,0.4947,0.4946,0.4946]}]]